STARLINK-1028 (44733 NORAD) Tracking and Keplerian Element Data

This shows tracking and keplerian element data for the satellite.

Feedback or suggestion? Click here.




ElementValue
Catalog44733
NameSTARLINK-1028
Epoch Orbit161
Epoch Day93.91667824
Epoch Year2020
RAAN193.6438
Inclination52.9992
Eccentricity0.0001292
Argument of Perigee71.7848
Mean Anonmoly6.721
Mean Motion15.05599771
Decay Rate-0.00034218
L11 44733U 19074W 20093.91667824 -.00034218 00000-0 -23394-2 0 9992
L22 44733 52.9992 193.6438 0001292 71.7848 6.7210 15.05599771 1615

Live tracking and technical data element details for STARLINK-1028 (NORAD 44733). STARLINK-1028 can be tracked NOW for your location showing map with azimuth and elevation plus other details from your city location.

Track the satellite on the map from your city or location and see movement details for azimuth, elevation, latitude, longitude, range, height, and movement on the map or in text.







IsCatalogInMostPopularTable: catalog: 44733, numindb: 32
Update: records affected: 1



GetName: 44733 STARLINK-1028

Hit Count: updated at: Sun, 05 Apr 2020 19:16:02 GMT